Time,TemperatureF,DewpointF,PressureIn,WindDirection,WindDirectionDegrees,WindSpeedMPH,WindSpeedGustMPH,Humidity,HourlyPrecipIn,Conditions,Clouds,dailyrainin,SoftwareType,DateUTC
2013-10-28 00:12:00,48.7,47.0,30.23,West,276,0.0,0.0,95,0.00,,,0.00,weatherlink.com 1.10,2013-10-28 04:12:00,
2013-10-28 00:27:00,48.3,47.0,30.22,North,9,0.0,1.0,95,0.00,,,0.00,weatherlink.com 1.10,2013-10-28 04:27:00,
2013-10-28 00:42:00,48.0,47.0,30.20,NNE,19,1.0,2.0,95,0.00,,,0.00,weatherlink.com 1.10,2013-10-28 04:42:00,
2013-10-28 00:57:00,48.4,47.0,30.23,West,267,0.0,4.0,95,0.00,,,0.00,weatherlink.com 1.10,2013-10-28 04:57:00,
2013-10-28 01:12:00,48.0,47.0,30.23,NNE,20,0.0,1.0,95,0.00,,,0.00,weatherlink.com 1.10,2013-10-28 05:12:00,
2013-10-28 01:27:00,47.4,46.0,30.23,ESE,108,0.0,1.0,95,0.00,,,0.00,weatherlink.com 1.10,2013-10-28 05:27:00,
2013-10-28 01:42:00,46.9,46.0,30.23,ENE,66,0.0,1.0,96,0.00,,,0.00,weatherlink.com 1.10,2013-10-28 05:42:00,
2013-10-28 01:57:00,46.6,46.0,30.23,WSW,248,0.0,1.0,96,0.00,,,0.00,weatherlink.com 1.10,2013-10-28 05:57:00,
2013-10-28 02:12:00,46.3,45.0,30.23,WSW,248,0.0,0.0,96,0.00,,,0.00,weatherlink.com 1.10,2013-10-28 06:12:00,
2013-10-28 02:27:00,45.8,45.0,30.23,WSW,248,0.0,0.0,96,0.00,,,0.00,weatherlink.com 1.10,2013-10-28 06:27:00,
2013-10-28 02:42:00,45.3,44.0,30.23,WSW,248,0.0,0.0,96,0.00,,,0.00,weatherlink.com 1.10,2013-10-28 06:42:00,
2013-10-28 02:58:00,45.0,44.0,30.24,WSW,248,0.0,1.0,97,0.00,,,0.00,weatherlink.com 1.10,2013-10-28 06:58:00,
2013-10-28 03:13:00,44.9,44.0,30.24,West,271,0.0,0.0,97,0.00,,,0.00,weatherlink.com 1.10,2013-10-28 07:13:00,
2013-10-28 03:28:00,45.3,45.0,30.24,West,271,0.0,0.0,98,0.00,,,0.00,weatherlink.com 1.10,2013-10-28 07:28:00,
2013-10-28 03:43:00,45.5,45.0,30.24,West,271,0.0,0.0,98,0.00,,,0.00,weatherlink.com 1.10,2013-10-28 07:43:00,
2013-10-28 03:58:00,45.9,45.0,30.25,West,271,0.0,1.0,98,0.00,,,0.00,weatherlink.com 1.10,2013-10-28 07:58:00,
2013-10-28 04:13:00,46.1,46.0,30.25,West,262,0.0,0.0,98,0.00,,,0.00,weatherlink.com 1.10,2013-10-28 08:13:00,
2013-10-28 04:28:00,46.3,46.0,30.25,West,260,0.0,0.0,97,0.00,,,0.00,weatherlink.com 1.10,2013-10-28 08:28:00,
2013-10-28 04:43:00,46.5,46.0,30.25,SW,231,0.0,1.0,97,0.00,,,0.00,weatherlink.com 1.10,2013-10-28 08:43:00,
2013-10-28 04:58:00,46.6,46.0,30.25,SW,231,0.0,0.0,97,0.00,,,0.00,weatherlink.com 1.10,2013-10-28 08:58:00,
2013-10-28 05:13:00,46.7,46.0,30.26,SW,231,0.0,0.0,97,0.00,,,0.00,weatherlink.com 1.10,2013-10-28 09:13:00,
2013-10-28 05:28:00,46.8,46.0,30.26,SW,231,0.0,0.0,97,0.00,,,0.00,weatherlink.com 1.10,2013-10-28 09:28:00,
2013-10-28 05:43:00,46.9,46.0,30.26,SW,231,0.0,0.0,97,0.00,,,0.00,weatherlink.com 1.10,2013-10-28 09:43:00,
2013-10-28 05:58:00,47.1,46.0,30.27,SW,232,0.0,1.0,97,0.00,,,0.00,weatherlink.com 1.10,2013-10-28 09:58:00,
2013-10-28 06:13:00,47.2,46.0,30.27,SW,232,0.0,0.0,97,0.00,,,0.00,weatherlink.com 1.10,2013-10-28 10:13:00,
2013-10-28 06:28:00,47.4,47.0,30.28,SW,217,0.0,0.0,97,0.00,,,0.00,weatherlink.com 1.10,2013-10-28 10:28:00,
2013-10-28 06:43:00,47.6,47.0,30.29,SW,218,0.0,0.0,97,0.00,,,0.00,weatherlink.com 1.10,2013-10-28 10:43:00,
2013-10-28 06:58:00,47.7,47.0,30.29,SW,218,0.0,0.0,97,0.01,,,0.01,weatherlink.com 1.10,2013-10-28 10:58:00,
2013-10-28 07:13:00,47.8,47.0,30.29,SW,218,0.0,0.0,98,0.02,,,0.02,weatherlink.com 1.10,2013-10-28 11:13:00,
2013-10-28 07:28:00,48.0,48.0,30.30,SW,218,0.0,0.0,98,0.02,,,0.02,weatherlink.com 1.10,2013-10-28 11:28:00,
2013-10-28 07:43:00,48.1,48.0,30.30,SW,218,0.0,0.0,98,0.03,,,0.03,weatherlink.com 1.10,2013-10-28 11:43:00,
2013-10-28 07:58:00,48.1,48.0,30.31,SW,218,0.0,0.0,98,0.03,,,0.04,weatherlink.com 1.10,2013-10-28 11:58:00,
2013-10-28 08:13:00,48.3,48.0,30.31,ESE,103,0.0,1.0,98,0.02,,,0.04,weatherlink.com 1.10,2013-10-28 12:13:00,
2013-10-28 08:28:00,48.4,48.0,30.32,East,101,0.0,0.0,98,0.02,,,0.04,weatherlink.com 1.10,2013-10-28 12:28:00,
2013-10-28 08:43:00,48.6,48.0,30.32,East,101,0.0,0.0,98,0.01,,,0.04,weatherlink.com 1.10,2013-10-28 12:43:00,
2013-10-28 08:58:00,48.9,48.0,30.33,WNW,285,0.0,1.0,98,0.00,,,0.04,weatherlink.com 1.10,2013-10-28 12:58:00,
2013-10-28 09:13:00,48.9,48.0,30.34,WNW,285,0.0,0.0,98,0.00,,,0.04,weatherlink.com 1.10,2013-10-28 13:13:00,
2013-10-28 09:28:00,49.5,49.0,30.34,WNW,285,0.0,0.0,98,0.00,,,0.04,weatherlink.com 1.10,2013-10-28 13:28:00,
2013-10-28 09:43:00,49.8,49.0,30.34,WNW,298,0.0,1.0,97,0.00,,,0.04,weatherlink.com 1.10,2013-10-28 13:43:00,
2013-10-28 09:58:00,50.5,50.0,30.35,WNW,298,0.0,1.0,97,0.00,,,0.04,weatherlink.com 1.10,2013-10-28 13:58:00,
2013-10-28 10:13:00,51.2,50.0,30.34,WNW,298,0.0,0.0,97,0.00,,,0.04,weatherlink.com 1.10,2013-10-28 14:13:00,
2013-10-28 10:28:00,51.6,51.0,30.35,SE,136,0.0,1.0,96,0.00,,,0.04,weatherlink.com 1.10,2013-10-28 14:28:00,
2013-10-28 10:43:00,52.1,51.0,30.35,SE,129,0.0,1.0,96,0.00,,,0.04,weatherlink.com 1.10,2013-10-28 14:43:00,
2013-10-28 10:58:00,52.5,51.0,30.35,ESE,121,0.0,1.0,96,0.00,,,0.04,weatherlink.com 1.10,2013-10-28 14:58:00,
2013-10-28 11:14:00,53.6,52.0,30.35,West,278,0.0,1.0,95,0.00,,,0.04,weatherlink.com 1.10,2013-10-28 15:14:00,
2013-10-28 11:29:00,54.6,53.0,30.36,North,5,0.0,1.0,93,0.01,,,0.05,weatherlink.com 1.10,2013-10-28 15:29:00,
2013-10-28 11:44:00,54.7,53.0,30.36,West,277,0.0,1.0,92,0.01,,,0.05,weatherlink.com 1.10,2013-10-28 15:44:00,
2013-10-28 12:00:00,55.3,53.0,30.36,West,280,1.0,1.0,93,0.01,,,0.05,weatherlink.com 1.10,2013-10-28 16:00:00,
2013-10-28 12:14:00,55.9,54.0,30.36,WNW,283,1.0,2.0,93,0.01,,,0.05,weatherlink.com 1.10,2013-10-28 16:14:00,
2013-10-28 12:29:00,56.6,54.0,30.36,ESE,117,0.0,2.0,92,0.00,,,0.05,weatherlink.com 1.10,2013-10-28 16:29:00,
2013-10-28 12:44:00,57.2,54.0,30.35,WNW,285,0.0,2.0,90,0.00,,,0.05,weatherlink.com 1.10,2013-10-28 16:44:00,
2013-10-28 12:59:00,58.8,55.0,30.34,WNW,285,0.0,1.0,86,0.00,,,0.05,weatherlink.com 1.10,2013-10-28 16:59:00,
2013-10-28 13:14:00,59.5,55.0,30.34,WNW,297,1.0,2.0,84,0.00,,,0.05,weatherlink.com 1.10,2013-10-28 17:14:00,
2013-10-28 13:29:00,59.7,53.0,30.33,West,262,1.0,2.0,79,0.00,,,0.05,weatherlink.com 1.10,2013-10-28 17:29:00,
2013-10-28 13:44:00,60.9,54.0,30.32,WNW,302,1.0,3.0,78,0.00,,,0.05,weatherlink.com 1.10,2013-10-28 17:44:00,
2013-10-28 13:59:00,61.3,54.0,30.32,WNW,285,0.0,3.0,76,0.00,,,0.05,weatherlink.com 1.10,2013-10-28 17:59:00,
2013-10-28 14:14:00,61.8,56.0,30.31,NNE,29,0.0,2.0,80,0.00,,,0.05,weatherlink.com 1.10,2013-10-28 18:14:00,
2013-10-28 14:29:00,62.0,55.0,30.31,ENE,75,0.0,1.0,79,0.00,,,0.05,weatherlink.com 1.10,2013-10-28 18:29:00,
2013-10-28 14:44:00,64.3,53.0,30.30,SW,236,2.0,5.0,68,0.00,,,0.05,weatherlink.com 1.10,2013-10-28 18:44:00,
2013-10-28 14:59:00,65.2,52.0,30.30,West,278,5.0,6.0,62,0.00,,,0.05,weatherlink.com 1.10,2013-10-28 18:59:00,
2013-10-28 15:31:00,63.5,52.0,30.30,SW,229,2.0,4.0,67,0.00,,,0.05,weatherlink.com 1.10,2013-10-28 19:31:00,
2013-10-28 15:43:00,63.9,53.0,30.29,NW,311,0.0,8.0,67,0.00,,,0.05,weatherlink.com 1.10,2013-10-28 19:43:00,
2013-10-28 15:58:00,62.9,53.0,30.30,West,266,1.0,8.0,70,0.00,,,0.05,weatherlink.com 1.10,2013-10-28 19:58:00,
2013-10-28 16:13:00,62.5,53.0,30.30,WNW,298,1.0,7.0,70,0.00,,,0.05,weatherlink.com 1.10,2013-10-28 20:13:00,
2013-10-28 16:29:00,62.4,52.0,30.30,NNW,334,0.0,6.0,70,0.00,,,0.05,weatherlink.com 1.10,2013-10-28 20:29:00,
2013-10-28 16:44:00,62.6,51.0,30.30,NW,317,1.0,3.0,65,0.00,,,0.05,weatherlink.com 1.10,2013-10-28 20:44:00,
2013-10-28 16:59:00,62.4,51.0,30.30,NW,311,0.0,5.0,67,0.00,,,0.05,weatherlink.com 1.10,2013-10-28 20:59:00,
2013-10-28 17:14:00,61.8,52.0,30.30,NNW,328,1.0,4.0,70,0.00,,,0.05,weatherlink.com 1.10,2013-10-28 21:14:00,
2013-10-28 17:29:00,61.5,52.0,30.30,West,260,2.0,6.0,71,0.00,,,0.05,weatherlink.com 1.10,2013-10-28 21:29:00,
2013-10-28 17:44:00,61.1,52.0,30.31,WSW,254,2.0,5.0,73,0.00,,,0.05,weatherlink.com 1.10,2013-10-28 21:44:00,
2013-10-28 17:59:00,60.5,52.0,30.31,West,264,2.0,4.0,73,0.00,,,0.05,weatherlink.com 1.10,2013-10-28 21:59:00,
2013-10-28 18:14:00,60.1,52.0,30.31,NW,321,1.0,3.0,74,0.00,,,0.05,weatherlink.com 1.10,2013-10-28 22:14:00,
2013-10-28 18:29:00,59.7,52.0,30.31,WNW,300,0.0,2.0,76,0.00,,,0.05,weatherlink.com 1.10,2013-10-28 22:29:00,
2013-10-28 18:44:00,59.2,53.0,30.32,WNW,300,0.0,1.0,79,0.00,,,0.05,weatherlink.com 1.10,2013-10-28 22:44:00,
2013-10-28 18:59:00,58.7,53.0,30.32,WNW,302,0.0,1.0,81,0.00,,,0.05,weatherlink.com 1.10,2013-10-28 22:59:00,
2013-10-28 19:14:00,58.4,53.0,30.32,NW,308,0.0,0.0,82,0.00,,,0.05,weatherlink.com 1.10,2013-10-28 23:14:00,
2013-10-28 19:29:00,57.9,52.0,30.33,NW,308,0.0,1.0,82,0.00,,,0.05,weatherlink.com 1.10,2013-10-28 23:29:00,
2013-10-28 19:44:00,57.5,53.0,30.34,NW,307,0.0,0.0,85,0.00,,,0.05,weatherlink.com 1.10,2013-10-28 23:44:00,
2013-10-28 19:59:00,57.0,53.0,30.34,NW,307,0.0,0.0,86,0.00,,,0.05,weatherlink.com 1.10,2013-10-28 23:59:00,
2013-10-28 20:14:00,56.6,53.0,30.34,NW,308,0.0,0.0,87,0.00,,,0.05,weatherlink.com 1.10,2013-10-29 00:14:00,
2013-10-28 20:29:00,56.1,53.0,30.35,NW,307,0.0,0.0,88,0.00,,,0.05,weatherlink.com 1.10,2013-10-29 00:29:00,
2013-10-28 20:44:00,55.8,53.0,30.35,NW,308,0.0,0.0,89,0.00,,,0.05,weatherlink.com 1.10,2013-10-29 00:44:00,
2013-10-28 20:59:00,55.3,53.0,30.35,NW,307,0.0,0.0,90,0.00,,,0.05,weatherlink.com 1.10,2013-10-29 00:59:00,
2013-10-28 21:14:00,55.2,53.0,30.35,NW,308,0.0,0.0,91,0.00,,,0.05,weatherlink.com 1.10,2013-10-29 01:14:00,
2013-10-28 21:29:00,54.9,53.0,30.36,NW,308,0.0,0.0,92,0.00,,,0.05,weatherlink.com 1.10,2013-10-29 01:29:00,
2013-10-28 21:44:00,54.6,53.0,30.36,NW,308,0.0,0.0,93,0.00,,,0.05,weatherlink.com 1.10,2013-10-29 01:44:00,
2013-10-28 21:59:00,54.4,53.0,30.36,NW,308,0.0,0.0,93,0.00,,,0.05,weatherlink.com 1.10,2013-10-29 01:59:00,
2013-10-28 22:14:00,54.2,52.0,30.36,NW,308,0.0,0.0,93,0.00,,,0.05,weatherlink.com 1.10,2013-10-29 02:14:00,
2013-10-28 22:29:00,53.9,52.0,30.36,NW,308,0.0,0.0,93,0.00,,,0.05,weatherlink.com 1.10,2013-10-29 02:29:00,
2013-10-28 22:44:00,53.9,52.0,30.36,NW,308,0.0,0.0,94,0.00,,,0.05,weatherlink.com 1.10,2013-10-29 02:44:00,
2013-10-28 22:59:00,53.9,52.0,30.36,NW,308,0.0,0.0,94,0.00,,,0.05,weatherlink.com 1.10,2013-10-29 02:59:00,
2013-10-28 23:14:00,53.7,52.0,30.36,NW,308,0.0,0.0,94,0.00,,,0.05,weatherlink.com 1.10,2013-10-29 03:14:00,
2013-10-28 23:29:00,53.5,52.0,30.36,NW,308,0.0,0.0,94,0.00,,,0.05,weatherlink.com 1.10,2013-10-29 03:29:00,
2013-10-28 23:44:00,53.3,52.0,30.36,NW,308,0.0,0.0,95,0.00,,,0.05,weatherlink.com 1.10,2013-10-29 03:44:00,
2013-10-28 23:59:00,53.2,52.0,30.36,NW,308,0.0,0.0,95,0.00,,,0.05,weatherlink.com 1.10,2013-10-29 03:59:00,